#timestamp,LO_Frequency,Hit,StdDev 
1541484015.4,286047001.2,N
1541484035.2,286047000.8,N
1541484055.0,286047002.3,N
1541484055.9,286047002.3,N
1541484075.8,286047002.5,N
1541484095.6,286046999.7,N
1541484115.5,286047000.2,N
1541484135.3,286047001.5,N
1541484155.1,286047001.3,N
1541484175.9,286047003.5,N
1541484195.7,286047003.0,N
1541484215.5,286047004.8,Y
1541484235.4,286047001.4,P
1541484255.2,286047001.7,P
1541484275.1,286047002.3,P
1541484276.0,286047002.3,Y
1541484295.8,286047000.6,P
1541484315.6,286047000.0,N
1541484335.5,286047000.9,N
1541484355.3,286046998.8,N
1541484375.2,286046996.6,Y
1541484395.9,286046997.0,P
1541484415.7,286046998.4,N
1541484435.6,286047001.2,N
1541484455.4,286046998.6,N
1541484475.2,286047001.1,N
1541484495.1,286047000.1,N
1541484496.0,286047000.1,N
1541484515.8,286047002.4,N
1541484535.7,286047002.4,N
1541484555.5,286047002.8,N
1541484575.3,286047003.5,N
1541484595.2,286047000.2,N
1541484615.0,286047003.5,N
1541484615.9,286047003.5,N
1541484635.8,286047004.0,N
1541484655.6,286047005.7,N
1541484675.4,286047003.2,N
1541484695.3,286047005.8,N
1541484715.1,286047005.7,N
1541484735.8,286047004.6,N
1541484755.7,286047004.6,N
1541484775.5,286047003.3,N
1541484795.4,286047005.6,N
1541484815.2,286047003.3,N
1541484835.0,286047002.9,N
1541484835.9,286047002.9,N
1541484855.8,286047006.0,N
1541484875.6,286047005.2,N
1541484895.5,286047005.6,N
1541484915.3,286047005.8,N
1541484935.1,286047003.0,N
1541484955.9,286047003.4,N
1541484975.7,286047005.4,N
1541484995.5,286047005.1,N
1541485015.4,286047006.8,Y
1541485035.2,286047004.3,P
1541485055.1,286047002.9,P
1541485056.0,286047002.9,P
1541485075.8,286047003.5,Y
1541485095.6,286046999.4,P
1541485115.5,286046996.8,N
1541485135.3,286046996.6,N
1541485155.2,286046998.4,N
1541485175.9,286046996.6,N
1541485195.7,286046999.5,N
1541485215.6,286046998.9,N
1541485235.4,286046998.3,N
1541485255.2,286046998.0,N
1541485275.1,286047001.2,N
1541485276.0,286047001.2,N
1541485295.8,286047000.8,N
1541485315.7,286046997.0,N
1541485335.5,286046999.2,N
1541485355.3,286046998.5,N
1541485375.2,286046996.9,N
1541485395.0,286046996.9,N
1541485395.9,286046996.9,N
1541485415.8,286046999.4,N
1541485435.6,286046997.0,N
1541485455.4,286046998.4,N
1541485475.3,286046999.9,N
1541485495.1,286046999.1,N
1541485515.8,286046996.9,N
1541485535.7,286046998.7,N
1541485555.5,286047001.0,N
1541485575.4,286047001.1,N
1541485595.2,286047000.3,N
1541485615.0,286047000.5,N
1541485615.9,286047000.5,N
1541485635.8,286047000.3,N
1541485655.6,286046999.7,N
1541485675.5,286046998.9,N
1541485695.3,286047000.4,N
1541485715.1,286047001.1,N
1541485735.9,286046998.1,N
1541485755.7,286046998.2,N
1541485775.5,286046999.5,N
1541485795.4,286046996.5,N
1541485815.2,286046999.0,N
1541485835.1,286047002.7,N
1541485836.0,286047002.7,N
1541485855.8,286047000.0,N
1541485875.6,286047000.2,N
1541485895.5,286047002.4,N
1541485915.3,286046999.9,N
1541485935.1,286046999.8,N
1541485955.9,286047000.1,N
1541485975.7,286047000.2,N
1541485995.6,286047000.4,N
1541486015.4,286047000.0,N
1541486035.2,286046999.9,N
1541486055.1,286047002.8,N
1541486056.0,286047002.8,N
1541486075.8,286047001.8,N
1541486095.7,286047004.4,Y
1541486115.5,286047004.3,P
1541486135.3,286047001.4,N
1541486155.2,286047002.8,N
1541486175.0,286047000.8,N
1541486175.9,286047000.8,N
1541486195.7,286047001.5,N
1541486215.6,286047002.2,N
1541486235.4,286047001.2,N
1541486255.3,286047000.0,N
1541486275.1,286047001.0,N
1541486276.0,286047001.0,N
1541486295.8,286047002.5,N
1541486315.7,286047001.7,N
1541486335.5,286047004.2,Y
1541486355.4,286047002.8,P
1541486375.2,286046999.9,N
1541486395.0,286046999.7,N
1541486395.9,286046999.7,N
1541486415.8,286047001.9,N
1541486435.6,286046999.9,N
1541486455.5,286046998.5,N
1541486475.3,286046998.9,N
1541486495.1,286047000.9,N
1541486515.9,286047000.3,N
1541486535.7,286047002.3,N
1541486555.5,286047003.6,N
1541486575.4,286047002.1,N
1541486595.2,286047001.7,N
1541486615.1,286046999.8,N
1541486616.0,286046999.8,N
1541486635.8,286047001.5,N
1541486655.6,286047001.5,N
1541486675.5,286047002.0,N
1541486695.3,286047000.2,N
1541486715.2,286047001.5,N
1541486735.9,286047001.3,N
1541486755.7,286047002.7,N
1541486775.6,286047001.8,N
1541486795.4,286047004.1,Y
1541486815.2,286047002.5,P
1541486835.1,286047001.5,N
1541486836.0,286047001.5,N
1541486855.8,286047002.8,Y
1541486875.7,286046999.4,P
1541486895.5,286047000.7,N
1541486915.3,286047002.8,P
1541486935.2,286047003.9,Y
1541486955.0,286047004.4,P
1541486955.9,286047004.4,N
1541486975.8,286047000.2,N
1541486995.6,286047000.3,N
1541487015.4,286047000.2,N
1541487035.3,286047000.5,N
1541487055.1,286046998.1,N
1541487075.9,286047000.2,N
1541487095.7,286047002.0,N
1541487115.5,286046999.7,N
1541487135.4,286046999.9,N
1541487155.2,286047000.1,N
1541487175.0,286046999.9,N
1541487175.9,286046999.9,N
1541487195.8,286047001.6,N
1541487215.6,286047001.4,N
1541487235.5,286047003.6,N
1541487255.3,286047003.1,N
1541487275.1,286047003.8,N
1541487295.9,286047004.4,N
1541487315.7,286047004.1,N
1541487335.6,286047004.2,N
1541487355.4,286047001.7,N
1541487375.2,286047002.0,N
1541487395.1,286047002.0,N
1541487396.0,286047002.0,N
1541487415.8,286047004.4,N
1541487435.7,286047003.1,N
1541487455.5,286047001.5,N
1541487475.3,286047004.0,N
1541487495.2,286047000.6,N
1541487515.0,286047000.2,N
1541487515.9,286047000.2,N
1541487535.7,286047001.8,N
1541487555.6,286047000.1,N
1541487575.4,286047002.8,N
1541487595.3,286047003.8,N
